[[{"header":{"parameterUnit":"m.s-1","parameterCategory":2,"la1":30.2992,"la2":30.254,"lo1":-89.0895,"lo2":-89.0443,"dy":0.0025,"dx":0.0025,"nx":19,"ny":19,"refTime":"2026-05-03T03:00:00:Z","depth":"0","parameterNumber":2,"parameterNumberName":"U-component_of_CURRENTS"},"data":[0,0,0,-0.1049,-0.105,-0.1084,-0.1084,-0.1165,-0.1165,0,0,0,0,0,0,0,0,0,0,0,-0.1039,-0.1039,-0.1049,-0.105,-0.1084,-0.1084,-0.1164,-0.1165,0,0,0,0,0,0,0,0,0,0,0,-0.1039,-0.1039,-0.1039,-0.105,-0.1084,-0.1084,-0.1164,-0.113,0,0,0,0,0,0,0,0,0,0,-0.1093,-0.1075,-0.1039,-0.1039,-0.105,-0.1084,-0.1084,-0.1128,-0.1132,-0.1158,0,-0.1162,0,-0.1164,-0.1171,-0.1171,0,0,0,-0.1054,-0.1072,-0.1082,-0.1039,-0.105,-0.1084,-0.107,-0.113,-0.1135,-0.1164,-0.1163,-0.1166,-0.1165,-0.1172,-0.1172,-0.1286,-0.1287,0,0,-0.1052,-0.1047,-0.1078,-0.1085,-0.1058,-0.1068,-0.1071,-0.1133,-0.1138,-0.1163,-0.1167,-0.1167,-0.1172,-0.1173,-0.1285,-0.1286,0,0,0,-0.1044,-0.1045,-0.1053,-0.1082,-0.1084,-0.1069,-0.1072,-0.1135,-0.1138,-0.1168,-0.1168,-0.1173,-0.1174,-0.1285,-0.1286,-0.1255,0,0,0,-0.1043,-0.104,-0.1052,-0.105,-0.1083,-0.1104,-0.1073,-0.1134,-0.114,-0.1167,-0.1173,-0.1175,-0.1284,-0.1285,-0.1254,-0.122,0,0,0,-0.1038,-0.104,-0.1043,-0.1049,-0.1062,-0.1103,-0.111,-0.1135,-0.114,-0.1172,-0.1175,-0.1284,-0.1285,-0.1253,-0.1221,-0.1202,0,0,0,-0.1032,-0.1024,-0.1043,-0.1047,-0.1061,-0.1094,-0.1109,-0.1134,-0.1159,-0.1173,-0.1284,-0.1286,-0.1253,-0.1221,-0.1202,-0.1128,-0.112,0,0,-0.1015,-0.1022,-0.1027,-0.1044,-0.107,-0.109,-0.1129,-0.1161,-0.1194,-0.1265,-0.1268,-0.1254,-0.1221,-0.1202,-0.121,-0.1199,0,0,0,-0.1017,-0.1017,-0.1032,-0.1052,-0.1086,-0.1118,-0.1155,-0.1184,-0.1241,-0.1215,-0.1292,-0.1272,-0.1261,-0.1219,-0.1211,-0.1163,-0.1292,-0.1292,-0.1292,-0.0976,-0.1004,-0.1017,-0.1055,-0.1085,-0.1142,-0.1172,-0.1225,-0.1256,-0.1285,-0.1276,-0.1278,-0.1236,-0.1228,-0.1181,-0.132,-0.132,-0.132,-0.132,-0.095,-0.0947,-0.1002,-0.1018,-0.1073,-0.1108,-0.1191,-0.1217,-0.1266,-0.1296,-0.1286,-0.1224,-0.1217,-0.1171,-0.1319,-0.1319,-0.1319,-0.1319,-0.1319,-0.0906,-0.0904,-0.0933,-0.0974,-0.1011,-0.1078,-0.1106,-0.117,-0.1225,-0.1225,-0.1179,-0.1179,-0.111,-0.1219,-0.1219,-0.1218,-0.1218,-0.1218,-0.1218,-0.0835,-0.0865,-0.0882,-0.0926,-0.0947,-0.0982,-0.1052,-0.1075,-0.1102,-0.1133,-0.1132,-0.1109,-0.1246,-0.1218,-0.1215,-0.1215,-0.1216,-0.1216,-0.1216,-0.0748,-0.0788,-0.081,-0.0835,-0.0887,-0.088,-0.0948,-0.0958,-0.0983,-0.0975,-0.0974,-0.109,-0.1086,-0.1093,-0.1062,-0.1018,-0.1018,-0.1018,-0.1018,-0.0691,-0.0713,-0.0757,-0.0792,-0.0816,-0.0837,-0.08,-0.0837,-0.0861,-0.0852,-0.0868,-0.0873,-0.0883,-0.0869,-0.0881,-0.0847,-0.075,-0.0749,-0.0749,-0.0642,-0.0674,-0.0686,-0.0754,-0.0784,-0.0773,-0.0718,-0.072,-0.074,-0.0737,-0.0815,-0.0826,-0.0838,-0.0857,-0.0841,-0.0861,-0.0809,0,0]},{"header":{"parameterUnit":"m.s-1","parameterCategory":2,"la1":30.2992,"la2":30.254,"lo1":-89.0895,"lo2":-89.0443,"dy":0.0025,"dx":0.0025,"nx":19,"ny":19,"refTime":"2026-05-03T03:00:00:Z","depth":"0","parameterNumber":3,"parameterNumberName":"V-component_of_CURRENTS"},"data":[0,0,0,-0.0262,-0.0267,-0.0475,-0.0475,-0.0583,-0.0584,0,0,0,0,0,0,0,0,0,0,0,-0.0184,-0.0186,-0.0261,-0.0267,-0.0474,-0.0475,-0.0583,-0.0584,0,0,0,0,0,0,0,0,0,0,0,-0.0183,-0.0185,-0.0188,-0.0268,-0.0474,-0.0475,-0.0583,-0.0461,0,0,0,0,0,0,0,0,0,0,-0.0277,-0.0218,-0.0185,-0.0188,-0.027,-0.0474,-0.0475,-0.0457,-0.0468,-0.045,0,-0.0501,0,-0.0554,-0.0589,-0.0589,0,0,0,-0.0249,-0.0208,-0.0286,-0.0188,-0.0272,-0.0474,-0.0376,-0.0464,-0.0477,-0.0465,-0.0504,-0.0509,-0.0556,-0.0589,-0.059,-0.0727,-0.0728,0,0,-0.0238,-0.0194,-0.0278,-0.0295,-0.0349,-0.0369,-0.0383,-0.0474,-0.048,-0.0504,-0.0513,-0.0557,-0.059,-0.0591,-0.0726,-0.0727,0,0,0,-0.0217,-0.0185,-0.0264,-0.0289,-0.0345,-0.0376,-0.0391,-0.0476,-0.051,-0.0514,-0.0559,-0.059,-0.0591,-0.0725,-0.0727,-0.0771,0,0,0,-0.0209,-0.0176,-0.0259,-0.023,-0.0345,-0.0432,-0.039,-0.0503,-0.0516,-0.0558,-0.059,-0.0592,-0.0724,-0.0726,-0.0768,-0.0781,0,0,0,-0.017,-0.0171,-0.0208,-0.0228,-0.0331,-0.0432,-0.047,-0.0507,-0.0542,-0.0589,-0.0592,-0.0724,-0.0726,-0.0765,-0.0776,-0.083,0,0,0,-0.0099,-0.0205,-0.0207,-0.033,-0.0329,-0.049,-0.0471,-0.0568,-0.0615,-0.0591,-0.0724,-0.0726,-0.0764,-0.0773,-0.0827,-0.0893,-0.0913,0,0,-0.0202,-0.0215,-0.0292,-0.0301,-0.0455,-0.0458,-0.0594,-0.0636,-0.0637,-0.0677,-0.0682,-0.0769,-0.0776,-0.0829,-0.1018,-0.1034,0,0,0,-0.0305,-0.0355,-0.0406,-0.0489,-0.058,-0.0638,-0.0689,-0.0708,-0.0761,-0.0682,-0.0801,-0.0804,-0.0836,-0.087,-0.0884,-0.0689,-0.0736,-0.0736,-0.0736,-0.0363,-0.0422,-0.0532,-0.0612,-0.0688,-0.0763,-0.0814,-0.0844,-0.0832,-0.0865,-0.0865,-0.0967,-0.1007,-0.1017,-0.0815,-0.0896,-0.0896,-0.0896,-0.0896,-0.0492,-0.0558,-0.0595,-0.0717,-0.0759,-0.0845,-0.0924,-0.0928,-0.0991,-0.0952,-0.098,-0.0946,-0.1034,-0.0814,-0.09,-0.0899,-0.0899,-0.0898,-0.0898,-0.0516,-0.0557,-0.0613,-0.0729,-0.081,-0.0883,-0.0972,-0.1005,-0.1032,-0.1062,-0.1104,-0.1103,-0.0888,-0.1078,-0.1079,-0.1079,-0.1079,-0.1079,-0.108,-0.0512,-0.0576,-0.0642,-0.0749,-0.0806,-0.0897,-0.0997,-0.1061,-0.1148,-0.1166,-0.1167,-0.0914,-0.1023,-0.099,-0.1085,-0.1084,-0.1083,-0.1083,-0.1082,-0.0584,-0.0575,-0.068,-0.0737,-0.0873,-0.0977,-0.1055,-0.1206,-0.1264,-0.1327,-0.1062,-0.1232,-0.1224,-0.1214,-0.1188,-0.1327,-0.1327,-0.1327,-0.1327,-0.0592,-0.0608,-0.0719,-0.0809,-0.0924,-0.1024,-0.1192,-0.1315,-0.1251,-0.1163,-0.1049,-0.0984,-0.0983,-0.0954,-0.095,-0.0915,-0.0982,-0.0981,-0.098,-0.0625,-0.0653,-0.0731,-0.0822,-0.0951,-0.1089,-0.1249,-0.139,-0.1213,-0.0939,-0.076,-0.0775,-0.0648,-0.0662,-0.059,-0.0599,-0.0534,0,0]}],[{"header":{"parameterUnit":"m.s-1","parameterCategory":2,"la1":30.2992,"la2":30.254,"lo1":-89.0895,"lo2":-89.0443,"dy":0.0025,"dx":0.0025,"nx":19,"ny":19,"refTime":"2026-05-03T03:00:00:Z","depth":"2","parameterNumber":2,"parameterNumberName":"U-component_of_CURRENTS"},"data":[0,0,0,-0.1123,-0.1126,-0.1282,-0.1283,-0.1438,-0.1439,0,0,0,0,0,0,0,0,0,0,0,-0.1055,-0.1055,-0.1123,-0.1127,-0.1282,-0.1283,-0.1438,-0.1439,0,0,0,0,0,0,0,0,0,0,0,-0.1054,-0.1055,-0.1056,-0.1127,-0.1282,-0.1283,-0.1437,-0.1332,0,0,0,0,0,0,0,0,0,0,-0.1187,-0.1139,-0.1055,-0.1056,-0.1128,-0.1282,-0.1283,-0.1328,-0.1339,-0.1353,0,-0.1366,0,-0.1409,-0.1448,-0.1448,0,0,0,-0.1133,-0.1129,-0.1162,-0.1056,-0.113,-0.1282,-0.1214,-0.1334,-0.1347,-0.1367,-0.1368,-0.1375,-0.1412,-0.1449,-0.1449,-0.1625,-0.1626,0,0,-0.1124,-0.1097,-0.1154,-0.117,-0.1155,-0.1209,-0.1219,-0.1342,-0.1353,-0.1369,-0.1379,-0.1415,-0.1449,-0.145,-0.1624,-0.1625,0,0,0,-0.1095,-0.109,-0.1122,-0.1162,-0.1196,-0.1213,-0.1224,-0.1348,-0.1355,-0.1381,-0.1416,-0.145,-0.1452,-0.1623,-0.1624,-0.1571,0,0,0,-0.1091,-0.1073,-0.1117,-0.1104,-0.1194,-0.1284,-0.1227,-0.1346,-0.1363,-0.1416,-0.145,-0.1453,-0.1622,-0.1624,-0.157,-0.1531,0,0,0,-0.105,-0.107,-0.1081,-0.1102,-0.1168,-0.1283,-0.1299,-0.1351,-0.1383,-0.1448,-0.1453,-0.1621,-0.1623,-0.1569,-0.1531,-0.1553,0,0,0,-0.1027,-0.1058,-0.108,-0.1124,-0.1166,-0.1265,-0.1299,-0.1382,-0.1436,-0.1451,-0.1622,-0.1624,-0.1569,-0.1532,-0.1553,-0.1462,-0.1456,0,0,-0.1055,-0.1061,-0.1086,-0.111,-0.1177,-0.1245,-0.1343,-0.1422,-0.1479,-0.1576,-0.1581,-0.157,-0.1531,-0.1553,-0.1591,-0.158,0,0,0,-0.1088,-0.1093,-0.112,-0.1162,-0.1238,-0.1309,-0.1405,-0.1462,-0.1562,-0.1523,-0.1631,-0.161,-0.1624,-0.1571,-0.1564,-0.1635,-0.1634,-0.1634,-0.1634,-0.1071,-0.1103,-0.1138,-0.1186,-0.1246,-0.1368,-0.1442,-0.1544,-0.1581,-0.1632,-0.1611,-0.1652,-0.1598,-0.1591,-0.1674,-0.1674,-0.1673,-0.1673,-0.1673,-0.107,-0.1072,-0.1121,-0.1162,-0.1238,-0.1317,-0.147,-0.1523,-0.1631,-0.1648,-0.1665,-0.1574,-0.1579,-0.167,-0.1671,-0.1671,-0.1672,-0.1672,-0.1672,-0.1014,-0.1022,-0.105,-0.1105,-0.117,-0.1277,-0.1344,-0.1465,-0.1572,-0.1598,-0.1562,-0.1562,-0.1587,-0.1601,-0.1601,-0.1601,-0.1601,-0.1601,-0.1601,-0.0938,-0.0971,-0.0985,-0.105,-0.1076,-0.1135,-0.1276,-0.1337,-0.1434,-0.1505,-0.1505,-0.1628,-0.163,-0.1587,-0.16,-0.16,-0.16,-0.16,-0.16,-0.0861,-0.0888,-0.0905,-0.0928,-0.0989,-0.0986,-0.1111,-0.1194,-0.1291,-0.1315,-0.148,-0.1483,-0.1493,-0.1499,-0.1455,-0.1434,-0.1434,-0.1434,-0.1434,-0.0806,-0.0823,-0.0845,-0.0862,-0.0876,-0.0919,-0.0927,-0.1081,-0.1249,-0.1353,-0.1357,-0.1345,-0.1352,-0.1356,-0.1366,-0.132,-0.1263,-0.1263,-0.1263,-0.0765,-0.0783,-0.0783,-0.0819,-0.0824,-0.0813,-0.0841,-0.101,-0.1194,-0.1262,-0.1381,-0.1412,-0.1403,-0.1411,-0.1427,-0.1438,-0.1368,0,0]},{"header":{"parameterUnit":"m.s-1","parameterCategory":2,"la1":30.2992,"la2":30.254,"lo1":-89.0895,"lo2":-89.0443,"dy":0.0025,"dx":0.0025,"nx":19,"ny":19,"refTime":"2026-05-03T03:00:00:Z","depth":"2","parameterNumber":3,"parameterNumberName":"V-component_of_CURRENTS"},"data":[0,0,0,0.0303,0.0306,0.0436,0.0436,0.0597,0.0599,0,0,0,0,0,0,0,0,0,0,0,0.0259,0.026,0.0303,0.0306,0.0435,0.0436,0.0597,0.0599,0,0,0,0,0,0,0,0,0,0,0,0.0259,0.026,0.0261,0.0306,0.0435,0.0436,0.0597,0.05,0,0,0,0,0,0,0,0,0,0,0.0374,0.0304,0.026,0.0261,0.0307,0.0435,0.0436,0.0495,0.0506,0.0538,0,0.0564,0,0.0587,0.061,0.061,0,0,0,0.0305,0.0295,0.0362,0.0262,0.0308,0.0435,0.0377,0.0501,0.0513,0.0552,0.0567,0.0573,0.059,0.0611,0.0611,0.0665,0.0664,0,0,0.0297,0.0252,0.0354,0.037,0.0352,0.0373,0.0381,0.0508,0.0506,0.0567,0.0577,0.0592,0.0612,0.0613,0.0665,0.0664,0,0,0,0.0278,0.0247,0.031,0.0363,0.0388,0.0376,0.0386,0.0499,0.0531,0.0579,0.0594,0.0613,0.0615,0.0666,0.0665,0.0529,0,0,0,0.0273,0.0236,0.0307,0.0277,0.0386,0.0438,0.0373,0.0522,0.0537,0.0593,0.0613,0.0616,0.0667,0.0665,0.0534,0.048,0,0,0,0.0252,0.0233,0.0258,0.0275,0.0336,0.0437,0.0474,0.0525,0.0546,0.061,0.0617,0.0667,0.0666,0.0539,0.0488,0.0416,0,0,0,0.0187,0.0209,0.0257,0.0271,0.0335,0.0396,0.0473,0.05,0.0542,0.0614,0.0666,0.0665,0.054,0.0493,0.0421,0.0419,0.0394,0,0,0.0179,0.0206,0.0214,0.0261,0.0287,0.0377,0.039,0.0469,0.0533,0.0626,0.0628,0.0532,0.0489,0.0417,0.0332,0.031,0,0,0,0.0187,0.0192,0.0209,0.0232,0.0295,0.0324,0.0412,0.044,0.0477,0.0555,0.054,0.0517,0.0476,0.0486,0.0468,0.0658,0.0658,0.0658,0.0658,0.0079,0.0125,0.0127,0.0189,0.0215,0.0282,0.0298,0.0354,0.0431,0.0402,0.0411,0.0273,0.0281,0.0268,0.0416,0.0416,0.0415,0.0415,0.0414,0.0036,0.0034,0.0064,0.0081,0.0115,0.0125,0.0193,0.0219,0.0224,0.03,0.0266,0.0349,0.0241,0.0404,0.0406,0.0407,0.0408,0.0409,0.041,-0.0051,-0.0037,-0.0031,-0.0023,-0.0043,0.0011,-0.0015,0.0042,0.0087,0.0055,0.0084,0.0087,0.0188,0.0028,0.0028,0.0027,0.0027,0.0026,0.0026,-0.0138,-0.0116,-0.0142,-0.0128,-0.0152,-0.0177,-0.0144,-0.0144,-0.0116,-0.006,-0.0059,0.0143,0.0156,0.0167,0.0017,0.0018,0.0019,0.002,0.0021,-0.0187,-0.0213,-0.0238,-0.0264,-0.0291,-0.0333,-0.0301,-0.0304,-0.0301,-0.0303,-0.0114,-0.0107,-0.006,-0.0043,-0.0035,-0.0229,-0.0229,-0.0229,-0.0229,-0.0257,-0.0255,-0.0323,-0.0358,-0.0398,-0.04,-0.0448,-0.031,-0.0204,-0.0038,-0.0045,0.006,0.0063,0.0127,0.014,0.0157,0.0012,0.0013,0.0014,-0.0287,-0.0314,-0.0371,-0.0402,-0.0438,-0.0476,-0.049,-0.0185,0.0196,0.0035,0.0117,-0.0236,-0.0099,-0.0087,0.0005,0.0028,0.0052,0,0]}],[{"header":{"parameterUnit":"m.s-1","parameterCategory":2,"la1":30.2992,"la2":30.254,"lo1":-89.0895,"lo2":-89.0443,"dy":0.0025,"dx":0.0025,"nx":19,"ny":19,"refTime":"2026-05-03T03:00:00:Z","depth":"4","parameterNumber":2,"parameterNumberName":"U-component_of_CURRENTS"},"data":[0,0,0,-0.0874,-0.0876,-0.0941,-0.0941,-0.0933,-0.0933,0,0,0,0,0,0,0,0,0,0,0,-0.0847,-0.0848,-0.0874,-0.0876,-0.0941,-0.0941,-0.0933,-0.0933,0,0,0,0,0,0,0,0,0,0,0,-0.0847,-0.0848,-0.0849,-0.0876,-0.0941,-0.0941,-0.0933,-0.0904,0,0,0,0,0,0,0,0,0,0,-0.0851,-0.0844,-0.0848,-0.0849,-0.0877,-0.0941,-0.0941,-0.0903,-0.0906,-0.0882,0,-0.0902,0,-0.0923,-0.0932,-0.0931,0,0,0,-0.0864,-0.0843,-0.0863,-0.0849,-0.0877,-0.0941,-0.0908,-0.0905,-0.0908,-0.0884,-0.0902,-0.0903,-0.0923,-0.0931,-0.0931,-0.0943,-0.0943,0,0,-0.086,-0.0852,-0.0861,-0.0865,-0.0906,-0.0906,-0.091,-0.0908,-0.0911,-0.0902,-0.0903,-0.0923,-0.0931,-0.0931,-0.0943,-0.0943,0,0,0,-0.0858,-0.085,-0.0871,-0.0864,-0.0887,-0.0908,-0.0913,-0.0911,-0.092,-0.0903,-0.0922,-0.0931,-0.0931,-0.0943,-0.0943,-0.0967,0,0,0,-0.0855,-0.0849,-0.087,-0.0865,-0.0888,-0.0913,-0.0917,-0.092,-0.0921,-0.0923,-0.0931,-0.0931,-0.0942,-0.0943,-0.0965,-0.0949,0,0,0,-0.0842,-0.0848,-0.086,-0.0864,-0.0899,-0.0914,-0.0923,-0.0921,-0.0933,-0.0931,-0.0931,-0.0942,-0.0943,-0.0964,-0.0948,-0.0962,0,0,0,-0.0824,-0.0842,-0.086,-0.0883,-0.0899,-0.0922,-0.0923,-0.0936,-0.0936,-0.0931,-0.0942,-0.0943,-0.0964,-0.0947,-0.0961,-0.0788,0,0,0,-0.0832,-0.0842,-0.0855,-0.0873,-0.0888,-0.0912,-0.0932,-0.0936,-0.0939,-0.0933,-0.0935,-0.0966,-0.0948,-0.0962,-0.0831,0,0,0,0,-0.0847,-0.0852,-0.0861,-0.0879,-0.0901,-0.0919,-0.0935,-0.0954,-0.0976,-0.0947,-0.0973,-0.0961,-0.0969,-0.0866,-0.0946,-0.0946,-0.0946,-0.0946,-0.0946,-0.0819,-0.0838,-0.0843,-0.0865,-0.0885,-0.0922,-0.0948,-0.0976,-0.0978,-0.1004,-0.0987,-0.1019,-0.0913,-0.1009,-0.1009,-0.1009,-0.1009,-0.101,-0.101,-0.0795,-0.0792,-0.0819,-0.0827,-0.0857,-0.0877,-0.0949,-0.0978,-0.1022,-0.1021,-0.1029,-0.0907,-0.1012,-0.1012,-0.1011,-0.1011,-0.1011,-0.1011,-0.101,-0.0754,-0.0754,-0.0764,-0.0767,-0.0794,-0.0844,-0.0885,-0.0965,-0.1018,-0.104,-0.0928,-0.1029,-0.1018,-0.1049,-0.1049,-0.1049,-0.1049,-0.1049,-0.1049,-0.0699,-0.0712,-0.0683,-0.0703,-0.0697,-0.0734,-0.0849,-0.0878,-0.0957,-0.0915,-0.1037,-0.1032,-0.1031,-0.102,-0.1049,-0.1049,-0.1049,-0.1049,-0.1049,-0.0647,-0.064,-0.0594,-0.0573,-0.0561,-0.0596,-0.0718,-0.0766,-0.079,-0.0767,-0.0856,-0.0865,-0.0834,-0.0838,-0.0819,-0.079,-0.0787,-0.0785,0,-0.059,-0.0591,-0.0507,-0.0456,-0.0425,-0.051,-0.0501,-0.0564,-0.066,-0.0648,-0.0787,-0.0887,-0.0893,-0.0859,-0.0859,-0.0836,0,0,0,-0.0536,-0.052,-0.0445,-0.0402,-0.0362,-0.0407,-0.0502,-0.0505,-0.0643,-0.0602,-0.0731,-0.0745,-0.0875,-0.1049,-0.1025,-0.1023,-0.1005,0,0]},{"header":{"parameterUnit":"m.s-1","parameterCategory":2,"la1":30.2992,"la2":30.254,"lo1":-89.0895,"lo2":-89.0443,"dy":0.0025,"dx":0.0025,"nx":19,"ny":19,"refTime":"2026-05-03T03:00:00:Z","depth":"4","parameterNumber":3,"parameterNumberName":"V-component_of_CURRENTS"},"data":[0,0,0,0.0321,0.0325,0.0494,0.0495,0.0567,0.0568,0,0,0,0,0,0,0,0,0,0,0,0.0262,0.0263,0.0321,0.0325,0.0494,0.0495,0.0567,0.0568,0,0,0,0,0,0,0,0,0,0,0,0.0261,0.0263,0.0265,0.0326,0.0494,0.0495,0.0567,0.0474,0,0,0,0,0,0,0,0,0,0,0.0328,0.0276,0.0263,0.0265,0.0327,0.0494,0.0495,0.0471,0.048,0.0451,0,0.0489,0,0.053,0.057,0.057,0,0,0,0.0321,0.0269,0.0335,0.0265,0.0329,0.0494,0.0417,0.0477,0.0487,0.0462,0.049,0.0494,0.0531,0.057,0.057,0.0578,0.0577,0,0,0.0312,0.0268,0.0329,0.0342,0.0385,0.0412,0.0422,0.0485,0.0483,0.0491,0.0497,0.0532,0.057,0.057,0.0578,0.0577,0,0,0,0.0288,0.0261,0.0328,0.0337,0.038,0.0417,0.0429,0.0481,0.051,0.0498,0.0533,0.057,0.0571,0.0578,0.0578,0.0515,0,0,0,0.0282,0.0248,0.0324,0.0296,0.038,0.0447,0.0422,0.0506,0.0515,0.0532,0.057,0.0571,0.0578,0.0578,0.0517,0.0456,0,0,0,0.0252,0.0244,0.0273,0.0294,0.0373,0.0448,0.0481,0.051,0.0535,0.057,0.0571,0.0578,0.0578,0.0519,0.0461,0.0492,0,0,0,0.0188,0.0243,0.0272,0.0321,0.0371,0.0433,0.0482,0.0523,0.0549,0.057,0.0578,0.0578,0.0519,0.0464,0.0494,0.0503,0,0,0,0.0225,0.0246,0.0272,0.0303,0.0342,0.0409,0.0422,0.0483,0.0533,0.0547,0.0549,0.0516,0.0461,0.0493,0.0485,0,0,0,0,0.0261,0.0279,0.0296,0.0322,0.0367,0.0367,0.0439,0.0473,0.0519,0.0552,0.0527,0.0494,0.0517,0.0528,0.0576,0.0576,0.0576,0.0576,0.0576,0.0239,0.026,0.0273,0.0295,0.0305,0.0339,0.036,0.0414,0.0469,0.0488,0.0453,0.0439,0.0448,0.0482,0.0482,0.0482,0.0481,0.0481,0.0481,0.0257,0.0265,0.0232,0.026,0.0233,0.0232,0.0269,0.0319,0.0373,0.0411,0.0438,0.047,0.0475,0.0476,0.0477,0.0478,0.0478,0.0479,0.0479,0.0245,0.0251,0.0255,0.0235,0.0181,0.0173,0.0165,0.0206,0.03,0.0307,0.0384,0.0408,0.0406,0.0351,0.0351,0.0351,0.035,0.035,0.035,0.0245,0.0245,0.0248,0.0213,0.0178,0.0124,0.0119,0.0155,0.0218,0.0293,0.0299,0.0396,0.04,0.04,0.0348,0.0348,0.0349,0.0349,0.0349,0.0275,0.0272,0.0277,0.0257,0.0177,0.0117,0.0097,0.015,0.0209,0.0266,0.0321,0.0323,0.0354,0.0359,0.0359,0.0293,0.0293,0.0293,0,0.0284,0.0285,0.0299,0.0274,0.0205,0.0121,0.0147,0.0166,0.0239,0.0255,0.0231,0.0292,0.0295,0.0327,0.0332,0.033,0,0,0,0.0288,0.0292,0.0309,0.0298,0.022,0.0171,0.0147,0.0186,0.0217,0.025,0.0291,0.0291,0.0288,0.0342,0.0394,0.0399,0.0402,0,0]}]]